{"data":{"norad_id":57223,"intl_designator":"2023-094F","name":"STARLINK-5519","alt_names":[],"object_type":"PAYLOAD","status":"ACTIVE","operator":null,"country":"US","launch_date":"2023-07-07","launch_site_code":"AFWTR","launch_vehicle":null,"mission":null,"orbit_class":"UNKNOWN","rcs_meters":null,"size_class":null,"mass_kg":null,"dimensions":null,"purposes":["comms"],"wikipedia_slug":null,"has_3d_model":false,"image_url":null,"decayed_at":null,"tle_current":{"epoch":"2026-09-20T07:34:45.025824Z","epoch_age_seconds":136870,"freshness":"FRESH","line1":"1 57223U 23094F   26263.31579891  .00000145  00000+0  14798-4 0  9991","line2":"2 57223  43.0041  14.7629 0001912 274.7695  85.2939 15.27576456176845","mean_motion":15.27576456,"eccentricity":0.0001912,"inclination_deg":43.0041,"raan_deg":14.7629,"arg_perigee_deg":274.7695,"mean_anomaly_deg":85.2939,"bstar":1.4798e-5,"rev_number":17684,"period_min":94.266967413905,"perigee_km":481.74784726053,"apogee_km":484.3715688817,"semimajor_km":6861.1967080711,"source":"CELESTRAK","updated_at":"2026-09-21T09:00:33.584654Z"}}}